Weather History for Hettinger, ND

Change the Weather History Date:

Wednesday, December 12, 2012

  Actual Average Record
Temperature  
Mean Temperature 30 °F -  
Max Temperature 40 °F 30 °F 48 °F (1998)
Min Temperature 19 °F 7 °F -20 °F (2000)
Degree Days  
Heating Degree Days 35 46  
Month to date heating degree days 448 537  
Since 1 July heating degree days 2426 2667  
Moisture  
Dew Point 24 °F    
Average Humidity 78    
Maximum Humidity 92    
Minimum Humidity 59    
Precipitation  
Precipitation T in 0.01 in 0.01 in (1998)
Month to date precipitation 0.04 0.08  
Year to date precipitation 14.62 15.87  
Sea Level Pressure  
Sea Level Pressure 29.75 in    
Wind  
Wind Speed 6 mph (ENE)    
Max Wind Speed 16 mph    
Max Gust Speed 18 mph    
Visibility 9 miles    
Events Snow    
T = Trace of Precipitation, MM = Missing Value Source: NWS Daily Summary

Daily Weather History Graph

Daily Weather History Graph

Search for Another Location

Airport:

Trip Planner

Search our weather history database for the weather conditions in past years. The results will help you decide how hot, cold, wet, or windy it might be!

Date:

Astronomy

Dec. 12, 2012 Rise Set
Actual Time 7:23 AM MST 4:05 PM MST
Civil Twilight 6:49 AM MST 4:39 PM MST
Nautical Twilight 6:11 AM MST 5:17 PM MST
Astronomical Twilight 5:35 AM MST 5:54 PM MST
Moon 6:29 AM MST (12/12) 3:45 PM MST (12/12)
Length of Visible Light 9h 50m
Length of Day
8h 41m
Waning Crescent, 0% of the Moon is Illuminated
Dec 12
Waning Crescent
Dec 13
New
Dec 19
First Quarter
Dec 28
Full
Jan 4
Last Quarter

Hourly Weather History & Observations

Time (MST) Temp. Windchill Dew Point Humidity Pressure Visibility Wind Dir Wind Speed Gust Speed Precip Events Conditions
12:53 AM 30.0 °F - 21.0 °F 69% 29.62 in 10.0 mi Calm Calm - N/A   Overcast
1:53 AM 30.9 °F 27.5 °F 21.9 °F 69% 29.63 in 10.0 mi West 3.5 mph - N/A   Overcast
2:53 AM 30.9 °F 20.2 °F 21.9 °F 69% 29.64 in 10.0 mi SW 15.0 mph - N/A   Partly Cloudy
3:53 AM 32.0 °F 26.4 °F 23.0 °F 69% 29.64 in 10.0 mi West 5.8 mph - N/A   Overcast
4:53 AM 30.9 °F 23.5 °F 21.0 °F 67% 29.65 in 10.0 mi SW 8.1 mph - N/A   Scattered Clouds
5:53 AM 26.1 °F - 19.9 °F 78% 29.68 in 10.0 mi Calm Calm - N/A   Clear
6:53 AM 19.9 °F - 15.1 °F 81% 29.70 in 10.0 mi Calm Calm - N/A   Clear
7:53 AM 24.1 °F - 18.0 °F 77% 29.72 in 10.0 mi Calm Calm - N/A   Partly Cloudy
8:53 AM 28.0 °F - 21.0 °F 75% 29.73 in 10.0 mi Calm Calm - N/A   Overcast
9:53 AM 33.1 °F - 23.0 °F 66% 29.73 in 10.0 mi Calm Calm - N/A   Overcast
10:53 AM 35.1 °F - 25.0 °F 67% 29.73 in 10.0 mi Calm Calm - N/A   Mostly Cloudy
11:53 AM 37.0 °F 31.6 °F 26.1 °F 65% 29.70 in 10.0 mi North 6.9 mph - N/A   Overcast
12:53 PM 39.0 °F 33.4 °F 26.1 °F 60% 29.70 in 10.0 mi NNE 8.1 mph - N/A   Mostly Cloudy
1:53 PM 37.0 °F 30.4 °F 27.0 °F 67% 29.70 in 10.0 mi NE 9.2 mph - N/A   Scattered Clouds
2:53 PM 35.1 °F 27.4 °F 27.0 °F 72% 29.72 in 10.0 mi ENE 10.4 mph - N/A   Overcast
3:53 PM 34.0 °F 26.6 °F 28.0 °F 79% 29.74 in 10.0 mi East 9.2 mph - N/A   Overcast
4:53 PM 32.0 °F 24.2 °F 28.0 °F 85% 29.77 in 10.0 mi ENE 9.2 mph - N/A   Overcast
5:53 PM 30.9 °F 21.7 °F 27.0 °F 85% 29.79 in 10.0 mi ENE 11.5 mph - N/A   Partly Cloudy
6:53 PM 28.9 °F 19.8 °F 26.1 °F 89% 29.83 in 10.0 mi East 10.4 mph - N/A   Mostly Cloudy
7:13 PM 28.4 °F 19.1 °F 26.6 °F 93% 29.74 in 10.0 mi East 10.4 mph - N/A   Mostly Cloudy
7:53 PM 28.0 °F 18.6 °F 25.0 °F 88% 29.85 in 10.0 mi ENE 10.4 mph - N/A   Mostly Cloudy
8:39 PM 28.4 °F 19.1 °F 24.8 °F 86% 29.76 in 3.0 mi East 10.4 mph - 0.00 in Snow Light Snow
8:53 PM 27.0 °F 18.7 °F 25.0 °F 92% 29.86 in 4.0 mi ENE 8.1 mph - 0.00 in Snow Light Snow
9:53 PM 27.0 °F 21.6 °F 24.1 °F 89% 29.89 in 6.0 mi ENE 4.6 mph - 0.00 in Snow Light Snow
10:39 PM 26.6 °F 20.0 °F 23.0 °F 86% 29.83 in 6.0 mi NE 5.8 mph - 0.00 in   Overcast
10:53 PM 26.1 °F 20.5 °F 23.0 °F 88% 29.91 in 6.0 mi NE 4.6 mph - 0.00 in   Overcast
11:35 PM 24.8 °F - 21.2 °F 86% 29.84 in 5.0 mi Calm Calm - N/A   Overcast
11:53 PM 24.1 °F - 21.0 °F 88% 29.92 in 6.0 mi Calm Calm - N/A   Overcast